Regional Weather Roundup
Issued by NWS

Home | Current Version | Previous Version | Text Only | Print | Product List | Glossary Off
Versions: 1 2 3 4 5 6 7 8 9 10 11 12 13 14 15 16 17 18 19 20 21 22 23 24 25 26 27 28 29 30 31 32 33 34 35 36 37 38 39 40 41 42 43 44 45 46 47 48 49 50

000
ASUS43 KMPX 241910
RWRMN
WEATHER ROUNDUP FOR MINNESOTA
NATIONAL WEATHER SERVICE TWIN CITIES/CHANHASSEN MN
200 PM CDT THU JUL 24 2014


NOTE: "FAIR" INDICATES FEW OR NO CLOUDS BELOW 12,000 FEET WITH NO
SIGNIFICANT WEATHER AND/OR OBSTRUCTIONS TO VISIBILITY. N/A MEANS
CURRENT SKY AND/OR WEATHER CONDITIONS ARE NOT AVAILABLE.

MNZ060>063-068>070-242000-
   Twin Cities Metro

CITY           SKY/WX    TMP DP  RH WIND       PRES   REMARKS
TWIN CITIES    PTSUNNY   81  54  39 SE9G16    30.03F
ST PAUL        PTSUNNY   79  56  45 S9        30.04F
CRYSTAL        MOSUNNY   82  56  40 S9        30.02F
BLAINE         MOSUNNY   81  57  44 S9        30.04F
LAKEVILLE      PTSUNNY   79  57  47 S10       30.04F
EDEN PRAIRIE   PTSUNNY   81  57  43 VRB6      30.02F
SOUTH ST PAUL  PTSUNNY   80  54  39 S10       30.03F
LAKE ELMO      FAIR      79  59  50 S8        30.06F
$$
MNZ001>005-007-008-013>017-022>024-027-028-242000-
   Northwest Minnesota

CITY           SKY/WX    TMP DP  RH WIND       PRES   REMARKS
BEMIDJI        CLOUDY    73  58  59 SW9       30.04F
HALLOCK        CLOUDY    72  61  68 CALM      29.91R
ROSEAU         CLOUDY    75  64  69 SE8       29.94F
WARROAD        CLOUDY    73  63  68 S5        29.97F
THIEF RVR FALL CLOUDY    73  61  64 SE14      29.90F
CROOKSTON      CLOUDY    73  63  68 S20       29.89R
FOSSTON        CLOUDY    72  59  64 SE9G16    29.94F
DETROIT LAKES  LGT RAIN  68  59  73 SE22G29   29.93F
MOORHEAD       CLOUDY    70  63  78 SE13G20   29.93F
PARK RAPIDS    CLOUDY    74  56  53 SW10      30.07F
$$
MNZ006-009>011-018-025>026-242000-
   North Central Minnesota

CITY           SKY/WX    TMP DP  RH WIND       PRES   REMARKS
BAUDETTE       PTSUNNY   74  58  57 VRB5      30.01F
FLAG ISLAND    PTSUNNY   70  57  64 SE8       29.98F
INTL FALLS     MOSUNNY   75  53  46 VRB3      30.02F
WASKISH        PTSUNNY   75  61  60 CALM      30.01F
BIG FORK       MOSUNNY   75  55  50 SW8       30.07S
LONGVILLE      CLOUDY    73  55  53 CALM      30.07F
GRAND RAPIDS   PTSUNNY   73  50  43 SW9       30.06F
CRANE LAKE     PTSUNNY   73  54  49 CALM      30.07R
ORR            PTSUNNY   73  52  46 SW9       30.03F
COOK           MOSUNNY   73  54  49 S7        30.06S
$$
MNZ012-019>021-037-242000-
   Northeast Minnesota

CITY           SKY/WX    TMP DP  RH WIND       PRES   REMARKS
DULUTH         PTSUNNY   75  56  51 S12       30.05F
ELY            PTSUNNY   72  50  46 SW8       30.06F
HIBBING        PTSUNNY   77  54  44 MISG      30.05F
EVELETH        PTSUNNY   73  50  43 SW8       30.05F
DULUTH HARBOR  MOSUNNY   66  59  77 E6        30.05F
TWO HARBORS    PTSUNNY   72  55  56 S7        30.04F
SILVER BAY     PTSUNNY   72  55  56 S12       30.04F
GRAND MARAIS     N/A     56  49  77 MISG      30.07F
G MARAIS ARPRT SUNNY     66  46  48 S9G16     30.10S
$$
MNZ029>031-032-039>041-046>048-054>057-064-242000-
   West Central Minnesota

CITY           SKY/WX    TMP DP  RH WIND       PRES   REMARKS
FERGUS FALLS   RAIN      64  57  77 S20       30.02F
WHEATON        RAIN      63  61  94 E25G32    29.98F
MORRIS         TSTM      66  63  88 N10       30.16R
ALEXANDRIA     HVY RAIN  69  58  67 W13       30.17R
ELBOW LAKE     HVY RAIN  64  60  85 CALM      30.13F
WADENA         CLOUDY    72  55  56 SW7       30.11R
GLENWOOD       PTSUNNY   72  57  60 W10       30.17R THUNDER
APPLETON       TSTM      72  63  73 NW12      30.14R
BENSON         PTSUNNY   73  61  64 NW13      30.15R
ORTONVILLE     TSTM      68  64  88 NE10      30.14R
MADISON        TSTM      72  63  73 N6        30.11R
WILLMAR        FAIR      77  57  50 CALM      30.07R
$$
MNZ033>034-036-042>043-049>051-058-059-242000-
   Central Minnesota

CITY           SKY/WX    TMP DP  RH WIND       PRES   REMARKS
ST CLOUD       MOSUNNY   82  53  36 SE8       30.04F
SAUK CENTRE    FAIR      74  54  49 CALM      30.08R
PAYNESVILLE    MOSUNNY   73  55  51 E3        30.05R HAZE
AITKIN         PTSUNNY   79  55  44 CALM      30.05F
PINE RIVER     PTSUNNY   75  57  53 S5        30.10S
BRAINERD       PTSUNNY   75  51  43 VRB7      30.06F
STAPLES        PTSUNNY   73  50  43 SW8       30.09R
LONG PRAIRIE   FAIR      72  54  53 CALM      30.10R
LITTLE FALLS   MOSUNNY   77  50  38 S6        30.06R
LITCHFIELD     MOSUNNY   79  57  47 SE7       30.03F
BUFFALO        MOSUNNY   80  54  40 S8        30.04F
MAPLE LAKE     MOSUNNY   80  60  50 CALM      30.04F
$$
MNZ037-044-045-052-053-242000-
   East Central Minnesota

CITY           SKY/WX    TMP DP  RH WIND       PRES   REMARKS
PRINCETON      MOSUNNY   82  54  36 S5        30.04F
MORA           PTSUNNY   75  54  46 CALM      30.07S
CAMBRIDGE      PTSUNNY   81  59  47 CALM      30.03F
RUSH CITY      PTSUNNY   77  55  45 S6        30.06F
MOOSE LAKE     MOSUNNY   77  54  44 S9        30.04F
HINCKLEY       FAIR      77  55  47 S8        30.06F
CLOQUET        PTSUNNY   73  52  46 SW8       30.06F
MCGREGOR       MOSUNNY   75  52  43 S7        30.07F
$$
MNZ071>073-080-081-089-090-097-098-242000-
   Southwest Minnesota

CITY           SKY/WX    TMP DP  RH WIND       PRES   REMARKS
MONTEVIDEO     TSTM      75  61  60 W8        30.12R
GRANITE FALLS  PTSUNNY   74  60  61 S14       30.08R
CANBY          LGT RAIN  67  62  83 E8G22     30.00S
MARSHALL       PTSUNNY   73  57  56 SW10      30.07R
REDWOOD FALLS  PTSUNNY   80  59  48 S14G25    30.00F
OLIVIA         MOSUNNY   77  59  53 S9        30.02R
PIPESTONE      TSTM      64  61  88 S17G23    30.03R
WINDOM         CLOUDY    75  59  57 SE15G25   29.99F
WORTHINGTON    CLOUDY    68  61  77 S15G23    30.00R
JACKSON        CLOUDY    72  59  64 SE17      30.00F
TRACY          CLOUDY    73  59  62 SW15G22   30.04R
SLAYTON        CLOUDY    68  60  74 CALM      30.04R THUNDER
$$
MNZ065>067-074>077-082>085-091>093-242000-
   South Central Minnesota

CITY           SKY/WX    TMP DP  RH WIND       PRES   REMARKS
MANKATO        PTSUNNY   79  57  47 S10       30.03F
NEW ULM        PTSUNNY   81  61  50 S13G20    29.98F
ST JAMES       CLOUDY    81  57  44 SE15      30.01F
FAIRMONT       CLOUDY    77  57  50 S18       30.02F
GLENCOE        MOSUNNY   83  54  36 SE13      30.01F
FARIBAULT      MOSUNNY   82  46  28 S6        30.05F
OWATONNA       MOSUNNY   79  55  44 S8        30.07F
WASECA         PTSUNNY   77  52  41 S13       30.07F
ALBERT LEA     MOSUNNY   79  55  44 S8        30.07F
$$
MNZ078>079-086>088-094>096-242000-
   Southeast Minnesota

CITY           SKY/WX    TMP DP  RH WIND       PRES   REMARKS
ROCHESTER      MOSUNNY   77  58  51 S8        30.08F
RED WING       MOSUNNY   82  52  34 SE7       30.03F
STANTON        MOSUNNY   81  55  41 SW9       30.04F
DODGE CENTER   MOSUNNY   77  59  53 S12       30.07F
WINONA         MOSUNNY   79  54  41 CALM      30.07F
AUSTIN         PTSUNNY   77  57  50 S9        30.07F
PRESTON        MOSUNNY   76  57  50 SE3       30.09F
$$
ABBREVIATIONS USED IN REMARKS
   TC - TEMPERATURES IN CELSIUS
  WCI - WIND CHILL INDEX
   HX - HEAT INDEX
  VSB - VISIBILITY
$$



USA.gov is the U.S. government's official web portal to all federal, state and local government web resources and services.